Location: Coopersdale
(40.3556°N, 78.9372°W)
Time: 00:45:47
(UTC+00:00)

Transit 4A - Pass Details

Date: 28 January 2021
Orbit: 867 x 978 km, 66.8° (Epoch: 07 March)

Event Time Altitude Azimuth Distance (km) Brightness Sun altitude
Rises 10:05:42 0° 312° (NW) 3,586 - -27.2°
Reaches altitude 10° 10:09:28 10° 289° (WNW) 2,612 - -26.5°
Maximum altitude 10:12:33 14° 258° (WSW) 2,277 - -25.9°
Drops below altitude 10° 10:15:37 10° 227° (SW) 2,564 - -25.4°
Sets 10:19:16 0° 204° (SSW) 3,476 - -24.7°
